FW6045 Weather Reports


Display with metric or nautical units.
time (UTC)temp
F
wind
direction
speed
MPH
gust
MPH
rain 1hr
in
rain 24hr
in
rain mn
in
humidity
%
barometer
mb
20260904094605 76 192 2.0 5.0 0.00 0.00 0.00 92 1014.8
20260904093104 77 209 1.0 3.0 0.00 0.00 0.00 90 1014.8
20260904091601 78 209 2.0 4.0 0.00 0.00 0.00 89 1014.8
20260904090059 78 209 3.0 4.0 0.00 0.00 0.00 88 1014.7
20260904084601 79 209 2.0 3.0 0.00 0.00 0.00 87 1014.6
20260904083110 79 209 2.0 3.0 0.00 0.00 0.00 86 1014.7
20260904081602 79 209 1.0 3.0 0.00 0.00 0.00 85 1014.6
20260904080109 79 209 1.0 3.0 0.00 0.00 0.00 85 1014.7
20260904074614 79 208 1.0 2.0 0.00 0.00 0.00 85 1014.6
20260904073108 78 0 0.0 0.0 0.00 0.00 0.00 88 1014.7
20260904071602 78 0 0.0 0.0 0.00 0.00 0.00 89 1014.7
20260904070059 78 0 0.0 0.0 0.00 0.00 0.00 88 1014.8
20260904064635 78 0 0.0 1.0 0.00 0.00 0.00 88 1014.9
20260904063128 79 208 0.0 3.0 0.00 0.00 0.00 87 1014.9
20260904061601 79 208 1.0 3.0 0.00 0.00 0.00 87 1014.9
20260904060126 79 208 0.0 3.0 0.00 0.00 0.00 87 1015.1
20260904054605 80 208 1.0 3.0 0.00 0.00 0.00 85 1015.2
20260904053103 80 208 3.0 4.0 0.00 0.00 0.00 86 1015.1
20260904051602 80 187 3.0 6.0 0.00 0.00 0.00 85 1015.1
20260904050104 80 183 2.0 4.0 0.00 0.00 0.00 85 1015.2
20260904044605 82 187 2.0 4.0 0.00 0.00 0.00 82 1015.1
20260904043111 82 171 1.0 5.0 0.00 0.00 0.00 83 1015.1
20260904041603 82 171 4.0 6.0 0.00 0.00 0.00 81 1015.1
20260904040106 82 180 2.0 5.0 0.00 0.00 0.00 82 1015.2
20260904034600 82 188 2.0 4.0 0.00 0.00 0.00 82 1015.1
20260904033105 83 188 3.0 5.0 0.00 0.00 0.00 80 1015.3
20260904031604 83 165 3.0 6.0 0.00 0.00 0.00 80 1015.2
20260904030100 84 0 0.0 0.0 0.00 0.00 0.00 78 1015.3
20260904024608 84 0 0.0 2.0 0.00 0.00 0.00 76 1015.5
20260904023120 85 147 2.0 5.0 0.00 0.00 0.00 74 1015.6
20260904021602 87 146 2.0 4.0 0.00 0.00 0.00 71 1015.6
20260904020104 87 146 2.0 3.0 0.00 0.00 0.00 70 1015.5
20260904014605 87 152 0.0 5.0 0.00 0.00 0.00 69 1015.5
20260904013124 89 152 6.0 7.0 0.00 0.00 0.00 65 1015.2
20260904011603 89 225 0.0 1.0 0.00 0.00 0.00 64 1015.4
20260904010103 89 0 0.0 2.0 0.00 0.00 0.00 64 1015.3
20260904004602 90 0 0.0 3.0 0.00 0.00 0.00 62 1015.1
20260904003120 90 225 3.0 5.0 0.00 0.00 0.00 60 1014.9
20260904001610 91 226 3.0 4.0 0.00 0.00 0.00 59 1014.8
20260904000105 92 226 2.0 4.0 0.00 0.00 0.00 59 1014.6
20260903234612 92 226 3.0 5.0 0.00 0.00 0.00 59 1014.5
20260903233106 92 236 3.0 5.0 0.00 0.00 0.00 59 1014.5
20260903231609 92 236 3.0 7.0 0.00 0.00 0.00 59 1014.4
20260903230110 92 221 5.0 9.0 0.00 0.00 0.00 58 1014.2
20260903224603 93 209 6.0 9.0 0.00 0.00 0.00 58 1014.4
20260903223112 93 189 5.0 14.0 0.00 0.00 0.00 58 1014.4
20260903221559 93 236 7.0 15.0 0.00 0.00 0.00 57 1014.3
20260903214606 93 265 6.0 11.0 0.00 0.00 0.00 57 1014.3
20260903213111 93 229 8.0 13.0 0.00 0.00 0.00 57 1014.4
20260903211559 94 226 4.0 13.0 0.00 0.00 0.00 57 1014.5
20260903210104 94 244 6.0 13.0 0.00 0.00 0.00 56 1014.6
20260903204559 94 236 6.0 14.0 0.00 0.00 0.00 56 1014.7
20260903203104 93 246 9.0 16.0 0.00 0.00 0.00 58 1014.8
20260903201605 92 263 5.0 13.0 0.00 0.00 0.00 59 1014.9
20260903194612 93 188 4.0 12.0 0.00 0.00 0.00 58 1015.3
20260903193105 93 245 8.0 16.0 0.00 0.00 0.00 57 1015.4
20260903191605 93 242 8.0 14.0 0.00 0.00 0.00 57 1015.5
20260903190110 93 223 9.0 15.0 0.00 0.00 0.00 57 1015.7
20260903184610 92 286 4.0 13.0 0.00 0.00 0.00 58 1015.6
20260903183107 92 297 5.0 9.0 0.00 0.00 0.00 61 1015.7
20260903181600 91 240 5.0 10.0 0.00 0.00 0.00 61 1015.9
20260903180112 91 273 3.0 10.0 0.00 0.00 0.00 63 1016.1
20260903174606 91 230 4.0 12.0 0.00 0.00 0.00 61 1016.3
20260903173111 91 266 8.0 14.0 0.00 0.00 0.00 62 1016.3
20260903171603 91 260 4.0 12.0 0.00 0.00 0.00 62 1016.4
20260903170109 90 246 8.0 14.0 0.00 0.00 0.00 61 1016.7
20260903164607 90 231 6.0 12.0 0.00 0.00 0.00 63 1016.8
20260903163138 90 258 3.0 12.0 0.00 0.00 0.00 65 1017.0
20260903161607 89 223 4.0 12.0 0.00 0.00 0.00 64 1017.1
20260903160108 89 244 4.0 12.0 0.00 0.00 0.00 64 1017.1
20260903154610 88 273 6.0 12.0 0.00 0.00 0.00 66 1017.1
20260903153109 88 263 4.0 10.0 0.00 0.00 0.00 67 1017.0
20260903151603 86 246 6.0 11.0 0.00 0.00 0.00 71 1016.8
20260903150108 85 296 7.0 9.0 0.00 0.00 0.00 74 1016.9
20260903144609 84 249 4.0 7.0 0.00 0.00 0.00 77 1016.8
20260903143105 83 261 5.0 8.0 0.00 0.00 0.00 79 1016.8
20260903141607 82 254 2.0 5.0 0.00 0.00 0.00 81 1016.9
20260903140103 82 231 1.0 3.0 0.00 0.00 0.00 82 1017.0
20260903134628 80 0 1.0 3.0 0.00 0.00 0.00 82 1017.1
20260903133112 80 0 0.0 4.0 0.00 0.00 0.00 83 1017.2
20260903131604 79 0 1.0 3.0 0.00 0.00 0.00 85 1017.4
20260903130113 78 202 0.0 2.0 0.00 0.00 0.00 86 1017.4
20260903124611 77 202 0.0 3.0 0.00 0.00 0.00 88 1017.5
20260903123115 76 202 1.0 3.0 0.00 0.00 0.00 89 1017.5
20260903121602 76 0 0.0 3.0 0.00 0.00 0.00 90 1017.5
20260903120131 75 201 2.0 4.0 0.00 0.00 0.00 90 1017.5
20260903114607 75 201 2.0 3.0 0.00 0.00 0.00 90 1017.2
20260903113119 75 201 2.0 4.0 0.00 0.00 0.00 90 1017.1
20260903111601 75 201 3.0 5.0 0.00 0.00 0.00 90 1017.1
20260903110106 75 203 3.0 5.0 0.00 0.00 0.00 91 1017.0
20260903104609 75 211 4.0 6.0 0.00 0.00 0.00 92 1016.9
20260903103105 76 209 4.0 5.0 0.00 0.00 0.00 91 1016.8
20260903101604 76 213 4.0 5.0 0.00 0.00 0.00 91 1016.7
20260903100106 76 213 2.0 4.0 0.00 0.00 0.00 90 1016.8